Time,TemperatureF,DewpointF,PressureIn,WindDirection,WindDirectionDegrees,WindSpeedMPH,WindSpeedGustMPH,Humidity,HourlyPrecipIn,Conditions,Clouds,dailyrainin,SoftwareType,DateUTC
2013-05-26 00:07:00,33.1,33.0,29.71,NNW,327,1.0,3.0,99,0.00,,,0.06,weatherlink.com 1.10,2013-05-26 04:07:00,
2013-05-26 00:22:00,33.2,33.0,29.70,NNW,332,1.0,6.0,99,0.01,,,0.07,weatherlink.com 1.10,2013-05-26 04:22:00,
2013-05-26 00:37:00,33.4,33.0,29.70,NW,314,2.0,5.0,99,0.02,,,0.08,weatherlink.com 1.10,2013-05-26 04:37:00,
2013-05-26 00:52:00,33.5,33.0,29.70,NW,314,1.0,3.0,99,0.03,,,0.09,weatherlink.com 1.10,2013-05-26 04:52:00,
2013-05-26 01:07:00,33.6,33.0,29.69,WNW,285,1.0,4.0,99,0.03,,,0.09,weatherlink.com 1.10,2013-05-26 05:07:00,
2013-05-26 01:23:00,33.7,34.0,29.69,NW,305,2.0,6.0,99,0.03,,,0.10,weatherlink.com 1.10,2013-05-26 05:23:00,
2013-05-26 01:38:00,33.7,34.0,29.68,NNE,13,2.0,4.0,99,0.03,,,0.11,weatherlink.com 1.10,2013-05-26 05:38:00,
2013-05-26 01:53:00,33.5,33.0,29.68,NW,318,1.0,4.0,99,0.03,,,0.12,weatherlink.com 1.10,2013-05-26 05:53:00,
2013-05-26 02:08:00,33.7,34.0,29.68,NW,325,1.0,4.0,99,0.04,,,0.13,weatherlink.com 1.10,2013-05-26 06:08:00,
2013-05-26 02:23:00,34.2,34.0,29.68,NNW,330,2.0,3.0,99,0.04,,,0.14,weatherlink.com 1.10,2013-05-26 06:23:00,
2013-05-26 02:38:00,34.7,35.0,29.67,WNW,296,2.0,5.0,99,0.04,,,0.15,weatherlink.com 1.10,2013-05-26 06:38:00,
2013-05-26 02:53:00,35.0,35.0,29.67,WNW,302,1.0,3.0,99,0.04,,,0.16,weatherlink.com 1.10,2013-05-26 06:53:00,
2013-05-26 03:08:00,35.2,35.0,29.67,WNW,293,1.0,4.0,99,0.04,,,0.17,weatherlink.com 1.10,2013-05-26 07:08:00,
2013-05-26 03:23:00,35.4,35.0,29.68,North,9,2.0,4.0,99,0.04,,,0.18,weatherlink.com 1.10,2013-05-26 07:23:00,
2013-05-26 03:38:00,35.6,35.0,29.68,WSW,257,1.0,3.0,99,0.03,,,0.18,weatherlink.com 1.10,2013-05-26 07:38:00,
2013-05-26 03:53:00,35.7,36.0,29.68,NNW,327,1.0,4.0,99,0.03,,,0.19,weatherlink.com 1.10,2013-05-26 07:53:00,
2013-05-26 04:08:00,35.9,36.0,29.68,WNW,300,1.0,3.0,99,0.03,,,0.20,weatherlink.com 1.10,2013-05-26 08:08:00,
2013-05-26 04:23:00,35.9,36.0,29.68,WNW,299,1.0,3.0,99,0.04,,,0.22,weatherlink.com 1.10,2013-05-26 08:23:00,
2013-05-26 04:38:00,35.9,36.0,29.69,NW,314,1.0,3.0,99,0.05,,,0.24,weatherlink.com 1.10,2013-05-26 08:38:00,
2013-05-26 04:53:00,35.8,36.0,29.70,WNW,300,2.0,4.0,99,0.07,,,0.26,weatherlink.com 1.10,2013-05-26 08:53:00,
2013-05-26 05:08:00,35.6,35.0,29.70,WNW,297,1.0,4.0,99,0.10,,,0.30,weatherlink.com 1.10,2013-05-26 09:08:00,
2013-05-26 05:23:00,35.3,35.0,29.71,NNW,346,1.0,6.0,98,0.11,,,0.33,weatherlink.com 1.10,2013-05-26 09:23:00,
2013-05-26 05:38:00,35.1,35.0,29.71,NW,316,3.0,5.0,98,0.11,,,0.35,weatherlink.com 1.10,2013-05-26 09:38:00,
2013-05-26 05:53:00,35.2,35.0,29.71,NW,305,2.0,4.0,99,0.11,,,0.37,weatherlink.com 1.10,2013-05-26 09:53:00,
2013-05-26 06:08:00,35.5,35.0,29.72,NW,310,1.0,4.0,99,0.08,,,0.38,weatherlink.com 1.10,2013-05-26 10:08:00,
2013-05-26 06:23:00,35.7,36.0,29.72,NW,305,2.0,5.0,99,0.06,,,0.39,weatherlink.com 1.10,2013-05-26 10:23:00,
2013-05-26 06:38:00,36.0,36.0,29.73,WNW,292,2.0,4.0,99,0.05,,,0.40,weatherlink.com 1.10,2013-05-26 10:38:00,
2013-05-26 06:53:00,36.3,36.0,29.73,North,355,1.0,6.0,99,0.04,,,0.41,weatherlink.com 1.10,2013-05-26 10:53:00,
2013-05-26 07:08:00,36.5,36.0,29.73,NW,312,3.0,5.0,99,0.05,,,0.43,weatherlink.com 1.10,2013-05-26 11:08:00,
2013-05-26 07:23:00,36.7,37.0,29.74,NW,311,2.0,6.0,99,0.04,,,0.43,weatherlink.com 1.10,2013-05-26 11:23:00,
2013-05-26 07:38:00,37.0,37.0,29.75,WNW,290,2.0,5.0,99,0.04,,,0.44,weatherlink.com 1.10,2013-05-26 11:38:00,
2013-05-26 07:53:00,37.4,37.0,29.75,North,5,3.0,6.0,98,0.03,,,0.44,weatherlink.com 1.10,2013-05-26 11:53:00,
2013-05-26 08:08:00,37.9,37.0,29.75,NW,312,2.0,6.0,98,0.01,,,0.44,weatherlink.com 1.10,2013-05-26 12:08:00,
2013-05-26 08:23:00,38.4,38.0,29.76,WNW,290,1.0,5.0,98,0.02,,,0.45,weatherlink.com 1.10,2013-05-26 12:23:00,
2013-05-26 08:38:00,39.1,38.0,29.76,NW,309,4.0,5.0,97,0.01,,,0.45,weatherlink.com 1.10,2013-05-26 12:38:00,
2013-05-26 08:53:00,40.0,39.0,29.76,ENE,60,2.0,4.0,97,0.01,,,0.45,weatherlink.com 1.10,2013-05-26 12:53:00,
2013-05-26 09:08:00,41.2,40.0,29.77,NNW,335,2.0,7.0,94,0.01,,,0.45,weatherlink.com 1.10,2013-05-26 13:08:00,
2013-05-26 09:23:00,41.8,39.0,29.77,NW,315,1.0,7.0,91,0.00,,,0.45,weatherlink.com 1.10,2013-05-26 13:23:00,
2013-05-26 09:38:00,44.1,41.0,29.78,WNW,298,1.0,7.0,89,0.00,,,0.45,weatherlink.com 1.10,2013-05-26 13:38:00,
2013-05-26 09:53:00,43.7,40.0,29.78,WNW,296,1.0,6.0,87,0.00,,,0.45,weatherlink.com 1.10,2013-05-26 13:53:00,
2013-05-26 10:08:00,45.2,40.0,29.79,West,271,3.0,7.0,83,0.00,,,0.45,weatherlink.com 1.10,2013-05-26 14:08:00,
2013-05-26 10:23:00,46.9,41.0,29.79,NW,315,3.0,7.0,81,0.00,,,0.45,weatherlink.com 1.10,2013-05-26 14:23:00,
2013-05-26 10:38:00,46.0,40.0,29.80,NW,309,2.0,7.0,80,0.00,,,0.45,weatherlink.com 1.10,2013-05-26 14:38:00,
2013-05-26 10:53:00,46.1,40.0,29.80,NW,323,0.0,6.0,79,0.00,,,0.45,weatherlink.com 1.10,2013-05-26 14:53:00,
2013-05-26 11:08:00,47.4,41.0,29.81,North,354,0.0,0.0,78,0.00,,,0.45,weatherlink.com 1.10,2013-05-26 15:08:00,
2013-05-26 11:23:00,49.4,40.0,29.80,WNW,291,0.0,2.0,71,0.00,,,0.45,weatherlink.com 1.10,2013-05-26 15:23:00,
2013-05-26 11:38:00,50.8,42.0,29.80,West,276,0.0,0.0,71,0.00,,,0.45,weatherlink.com 1.10,2013-05-26 15:38:00,
2013-05-26 11:54:00,51.3,41.0,29.81,NNW,331,0.0,0.0,68,0.00,,,0.45,weatherlink.com 1.10,2013-05-26 15:54:00,
2013-05-26 12:09:00,51.6,41.0,29.82,NE,36,0.0,0.0,67,0.00,,,0.45,weatherlink.com 1.10,2013-05-26 16:09:00,
2013-05-26 12:24:00,51.9,41.0,29.82,NW,305,0.0,0.0,67,0.00,,,0.45,weatherlink.com 1.10,2013-05-26 16:24:00,
2013-05-26 12:39:00,53.4,41.0,29.82,North,358,0.0,6.0,63,0.00,,,0.45,weatherlink.com 1.10,2013-05-26 16:39:00,
2013-05-26 12:54:00,53.2,41.0,29.83,NNW,341,0.0,4.0,63,0.00,,,0.45,weatherlink.com 1.10,2013-05-26 16:54:00,
2013-05-26 13:09:00,51.9,39.0,29.83,West,264,0.0,0.0,62,0.00,,,0.45,weatherlink.com 1.10,2013-05-26 17:09:00,
2013-05-26 13:24:00,51.5,40.0,29.84,WNW,300,0.0,0.0,65,0.00,,,0.45,weatherlink.com 1.10,2013-05-26 17:24:00,
2013-05-26 13:39:00,51.2,39.0,29.84,West,276,0.0,0.0,63,0.00,,,0.45,weatherlink.com 1.10,2013-05-26 17:39:00,
2013-05-26 13:54:00,51.6,40.0,29.84,North,350,0.0,0.0,66,0.00,,,0.45,weatherlink.com 1.10,2013-05-26 17:54:00,
2013-05-26 14:09:00,51.9,40.0,29.84,NNE,27,0.0,0.0,63,0.00,,,0.45,weatherlink.com 1.10,2013-05-26 18:09:00,
2013-05-26 14:24:00,52.5,40.0,29.85,North,8,0.0,0.0,63,0.00,,,0.45,weatherlink.com 1.10,2013-05-26 18:24:00,
2013-05-26 14:39:00,50.8,40.0,29.86,NE,45,0.0,0.0,66,0.00,,,0.45,weatherlink.com 1.10,2013-05-26 18:39:00,
2013-05-26 14:54:00,49.7,39.0,29.87,WNW,296,0.0,0.0,68,0.00,,,0.45,weatherlink.com 1.10,2013-05-26 18:54:00,
2013-05-26 15:09:00,50.7,40.0,29.87,NW,321,0.0,0.0,66,0.00,,,0.45,weatherlink.com 1.10,2013-05-26 19:09:00,
2013-05-26 15:24:00,51.4,39.0,29.88,NW,314,0.0,0.0,64,0.00,,,0.45,weatherlink.com 1.10,2013-05-26 19:24:00,
2013-05-26 15:39:00,50.6,40.0,29.89,NW,307,0.0,0.0,67,0.00,,,0.45,weatherlink.com 1.10,2013-05-26 19:39:00,
2013-05-26 15:54:00,50.5,40.0,29.89,West,277,0.0,0.0,67,0.00,,,0.45,weatherlink.com 1.10,2013-05-26 19:54:00,
2013-05-26 16:09:00,50.6,40.0,29.90,ENE,61,0.0,0.0,68,0.00,,,0.45,weatherlink.com 1.10,2013-05-26 20:09:00,
2013-05-26 16:24:00,51.2,40.0,29.90,NNE,25,0.0,0.0,66,0.00,,,0.45,weatherlink.com 1.10,2013-05-26 20:24:00,
2013-05-26 16:39:00,51.9,40.0,29.91,NE,40,0.0,0.0,64,0.00,,,0.45,weatherlink.com 1.10,2013-05-26 20:39:00,
2013-05-26 16:54:00,52.0,40.0,29.91,NW,304,0.0,0.0,65,0.00,,,0.45,weatherlink.com 1.10,2013-05-26 20:54:00,
2013-05-26 17:10:00,51.2,40.0,29.92,North,358,0.0,0.0,65,0.00,,,0.45,weatherlink.com 1.10,2013-05-26 21:10:00,
2013-05-26 17:24:00,50.8,41.0,29.93,WNW,285,0.0,0.0,68,0.00,,,0.45,weatherlink.com 1.10,2013-05-26 21:24:00,
2013-05-26 17:39:00,51.0,40.0,29.93,North,9,0.0,0.0,67,0.00,,,0.45,weatherlink.com 1.10,2013-05-26 21:39:00,
2013-05-26 17:54:00,50.8,40.0,29.94,WNW,295,0.0,0.0,66,0.00,,,0.45,weatherlink.com 1.10,2013-05-26 21:54:00,
2013-05-26 18:09:00,50.5,40.0,29.94,WNW,300,0.0,0.0,67,0.00,,,0.45,weatherlink.com 1.10,2013-05-26 22:09:00,
2013-05-26 18:24:00,50.3,39.0,29.95,NW,314,0.0,0.0,66,0.00,,,0.45,weatherlink.com 1.10,2013-05-26 22:24:00,
2013-05-26 18:39:00,50.3,39.0,29.96,NNE,22,0.0,3.0,65,0.00,,,0.45,weatherlink.com 1.10,2013-05-26 22:39:00,
2013-05-26 18:54:00,49.7,39.0,29.97,NE,44,0.0,0.0,68,0.00,,,0.45,weatherlink.com 1.10,2013-05-26 22:54:00,
2013-05-26 19:09:00,49.4,40.0,29.97,WNW,294,0.0,3.0,70,0.00,,,0.00,weatherlink.com 1.10,2013-05-26 23:09:00,
2013-05-26 19:24:00,49.1,40.0,29.98,NNE,18,0.0,0.0,71,0.00,,,0.00,weatherlink.com 1.10,2013-05-26 23:24:00,
2013-05-26 19:39:00,48.6,40.0,29.99,ENE,70,0.0,0.0,71,0.00,,,0.00,weatherlink.com 1.10,2013-05-26 23:39:00,
2013-05-26 19:54:00,48.2,40.0,30.00,NW,314,0.0,0.0,73,0.00,,,0.00,weatherlink.com 1.10,2013-05-26 23:54:00,
2013-05-26 20:09:00,47.5,40.0,30.01,South,190,0.0,0.0,74,0.00,,,0.00,weatherlink.com 1.10,2013-05-27 00:09:00,
2013-05-26 20:25:00,47.1,39.0,30.00,WNW,297,0.0,0.0,74,0.00,,,0.00,weatherlink.com 1.10,2013-05-27 00:25:00,
2013-05-26 20:40:00,46.5,39.0,30.01,NNW,335,0.0,0.0,76,0.00,,,0.00,weatherlink.com 1.10,2013-05-27 00:40:00,
2013-05-26 20:55:00,46.0,39.0,30.02,WNW,287,0.0,0.0,76,0.00,,,0.00,weatherlink.com 1.10,2013-05-27 00:55:00,
2013-05-26 21:10:00,45.6,39.0,30.02,NE,44,0.0,0.0,77,0.00,,,0.00,weatherlink.com 1.10,2013-05-27 01:10:00,
2013-05-26 21:25:00,45.4,38.0,30.02,NW,325,0.0,0.0,76,0.00,,,0.00,weatherlink.com 1.10,2013-05-27 01:25:00,
2013-05-26 21:40:00,45.4,38.0,30.03,NNE,13,0.0,0.0,76,0.00,,,0.00,weatherlink.com 1.10,2013-05-27 01:40:00,
2013-05-26 21:55:00,45.1,38.0,30.03,NW,318,0.0,0.0,77,0.00,,,0.00,weatherlink.com 1.10,2013-05-27 01:55:00,
2013-05-26 22:10:00,44.6,39.0,30.03,NW,304,0.0,0.0,80,0.00,,,0.00,weatherlink.com 1.10,2013-05-27 02:10:00,
2013-05-26 22:25:00,44.0,39.0,30.04,NW,307,0.0,0.0,81,0.00,,,0.00,weatherlink.com 1.10,2013-05-27 02:25:00,
2013-05-26 22:40:00,43.4,39.0,30.04,NW,307,0.0,0.0,83,0.00,,,0.00,weatherlink.com 1.10,2013-05-27 02:40:00,
2013-05-26 22:55:00,42.7,39.0,30.04,NW,307,0.0,0.0,85,0.00,,,0.00,weatherlink.com 1.10,2013-05-27 02:55:00,
2013-05-26 23:10:00,42.2,38.0,30.05,NW,307,0.0,0.0,86,0.00,,,0.00,weatherlink.com 1.10,2013-05-27 03:10:00,
2013-05-26 23:25:00,42.2,38.0,30.05,NW,307,0.0,0.0,86,0.00,,,0.00,weatherlink.com 1.10,2013-05-27 03:25:00,
2013-05-26 23:40:00,42.4,38.0,30.05,NW,307,0.0,0.0,85,0.00,,,0.00,weatherlink.com 1.10,2013-05-27 03:40:00,
2013-05-26 23:55:00,42.4,38.0,30.05,NW,308,0.0,0.0,84,0.00,,,0.00,weatherlink.com 1.10,2013-05-27 03:55:00,